Location: Croissy-Beaubourg
(48.8283°N, 2.6696°E)
Time: 23:07:38
(UTC+00:00)

Cosmos 2082 - Pass Details

Date: 25 August 2022
Orbit: 832 x 856 km, 71.0° (Epoch: 28 September)

Event Time Altitude Azimuth Distance (km) Brightness Sun altitude
Rises 03:24:31 0° 320° (NW) 3,416 6.8 -14.3°
Reaches altitude 10° 03:27:41 10° 302° (WNW) 2,480 5.9 -13.8°
Maximum altitude 03:31:25 18° 261° (W) 1,955 5.1 -13.3°
Enters shadow 03:32:17 18° 249° (WSW) 1,987 5.0 -13.2°
